CDT,Max TemperatureF,Mean TemperatureF,Min TemperatureF,Max Dew PointF,MeanDew PointF,Min DewpointF,Max Humidity, Mean Humidity, Min Humidity, Max Sea Level PressureIn, Mean Sea Level PressureIn, Min Sea Level PressureIn, Max VisibilityMiles, Mean VisibilityMiles, Min VisibilityMiles, Max Wind SpeedMPH, Mean Wind SpeedMPH, Max Gust SpeedMPH,PrecipitationIn, CloudCover, Events, WindDirDegrees
2013-10-1,72,58,42,51,41,28,87,51,19,30.00,29.81,29.55,10,10,7,20,9,26,0.00,0,,256
2013-10-2,72,54,37,51,41,33,96,72,24,30.03,29.96,29.84,10,9,2,23,5,32,0.54,3,Rain-Thunderstorm,87
2013-10-3,53,52,50,53,52,49,99,96,94,29.99,29.91,29.89,10,7,2,13,7,17,0.39,8,Rain-Thunderstorm,35
2013-10-4,56,53,50,52,51,50,98,92,83,30.01,29.95,29.81,10,6,3,18,10,30,0.07,8,Rain-Thunderstorm,54
2013-10-5,55,48,40,53,46,40,99,86,62,29.83,29.79,29.76,10,7,2,16,8,26,0.04,7,Rain-Thunderstorm,119
2013-10-6,53,47,41,48,44,38,99,91,70,29.88,29.78,29.70,10,8,2,16,4,24,0.00,6,Rain,326
2013-10-7,65,51,37,44,39,34,97,68,31,29.98,29.93,29.85,10,9,4,9,3,,0.00,1,Snow,235
2013-10-8,78,64,49,45,43,40,79,52,27,29.93,29.82,29.74,10,8,3,23,11,33,0.00,0,,163
2013-10-9,75,64,53,49,47,44,77,57,38,30.01,29.96,29.87,10,10,5,13,9,20,0.00,0,,161
2013-10-10,77,65,53,51,48,46,78,58,36,30.01,29.91,29.82,10,9,4,18,9,26,0.00,0,,143
2013-10-11,68,60,52,60,53,46,93,75,60,29.83,29.69,29.54,10,10,2,22,12,31,0.84,3,Rain-Thunderstorm,144
2013-10-12,51,44,36,44,41,33,92,79,69,30.20,29.91,29.68,10,9,3,22,14,36,0.43,6,Rain,245
2013-10-13,57,44,30,39,34,29,97,74,34,30.43,30.35,30.21,10,10,1,8,3,,0.00,0,,271
2013-10-14,48,44,40,45,40,35,93,81,65,30.38,30.20,29.89,10,9,4,22,6,33,0.62,7,Rain,92
2013-10-15,47,45,43,46,45,41,98,95,90,29.91,29.78,29.69,10,6,2,21,12,29,0.49,8,Rain,22
2013-10-16,53,43,33,42,36,32,97,81,47,29.98,29.93,29.86,10,8,0,12,6,16,0.00,2,Fog-Snow,290
2013-10-17,48,41,34,45,38,32,96,91,77,29.92,29.84,29.80,10,8,3,14,3,22,0.16,5,Rain-Snow,313
2013-10-18,50,40,30,38,33,28,95,77,42,30.00,29.93,29.84,10,10,7,16,7,24,0.00,5,Rain-Snow,264
2013-10-19,42,35,28,37,32,27,94,85,59,29.82,29.75,29.70,10,10,7,16,6,22,0.00,5,Rain,265
2013-10-20,37,32,28,35,32,24,97,88,70,29.92,29.74,29.62,10,9,4,16,4,23,0.01,7,Rain-Snow,351
2013-10-21,37,30,22,24,22,18,92,67,52,29.97,29.95,29.92,10,10,10,20,10,25,0.00,5,,286
2013-10-22,39,30,20,30,25,19,96,83,60,30.05,30.01,29.96,10,10,10,12,2,17,0.00,5,,299
2013-10-23,37,30,25,29,23,18,94,71,48,30.14,30.05,30.01,10,10,10,15,6,22,0.00,7,,303
2013-10-24,41,31,21,32,27,19,96,80,57,30.32,30.24,30.14,10,10,7,15,5,20,0.00,6,,281
2013-10-25,59,42,24,41,32,22,95,73,47,30.32,30.04,29.78,10,9,4,21,7,29,0.00,0,,225
2013-10-26,45,36,27,32,27,24,89,68,52,30.13,30.05,29.85,10,10,7,17,11,25,0.00,2,,299
2013-10-27,56,42,29,32,28,25,88,65,39,30.17,29.92,29.80,10,10,10,13,8,22,0.00,0,,285
2013-10-28,39,32,25,28,22,17,88,68,42,30.45,30.38,30.18,10,10,10,13,8,18,0.00,0,,42
2013-10-29,34,31,28,33,29,23,95,88,80,30.41,30.25,30.09,10,9,2,9,6,,0.00,8,Rain-Snow,57
2013-10-30,42,38,34,42,38,33,100,98,94,30.08,29.89,29.69,10,2,0,8,3,,0.00,8,Fog-Rain,56
2013-10-31,41,38,35,41,37,36,100,98,95,29.68,29.52,29.43,10,4,1,13,7,10,0.00,8,Rain,279